STARLINK-4122 (53272 NORAD) Tracking and Keplerian Element Data

This shows tracking and keplerian element data for the satellite.

Feedback or suggestion? Click here.




ElementValue
Catalog53272
NameSTARLINK-4122
Epoch Orbit1081
Epoch Day270.25001157
Epoch Year2022
RAAN83.1588
Inclination53.217
Eccentricity0.0001735
Argument of Perigee29.3706
Mean Anonmoly116.1214
Mean Motion15.62914015
Decay Rate-0.00968242
L11 53272U 22086AG 22270.25001157 -.00968242 00000+0 -11614-1 0 9997
L22 53272 53.2170 83.1588 0001735 29.3706 116.1214 15.62914015 10815

Live tracking and technical data element details for STARLINK-4122 (NORAD 53272). STARLINK-4122 can be tracked NOW for your location showing map with azimuth and elevation plus other details from your city location.

Track the satellite on the map from your city or location and see movement details for azimuth, elevation, latitude, longitude, range, height, and movement on the map or in text.







IsCatalogInMostPopularTable: catalog: 53272, numindb: 1
Update: records affected: 1



GetName: 53272 STARLINK-4122

Hit Count: updated at: Fri, 30 Sep 2022 03:11:55 GMT